SL-16 DEB, 22574

Orbit data source: Space-Track

SL-16 DEB, 22574 is space debris in LEO originally from a launch on Fri, 25 Dec 1992 UTC launched from the Tyuratam Missile And Space Complex (TTMTR). Debris objects in space refer to the collection of defunct objects orbiting the Earth. Examples of debris include non-operational satellites, rocket bodies, and fragments generated from explosions, collisions, or faulty payload assembly.

Loading next visibility...
Identifier
22574, 1992-093HW
Orbit
LEO
Country
Flag of CISCIS
Related business
Manufacturer
Unknown
Mission
Spacecraft
Bus & Motor
Unknown
Mass
Unknown
Launch date (UTC)
1992-12-25 (33 years ago)
Launch vehicle
Unknown
Launch site
Tyuratam Missile And Space Complex (TTMTR)
Object type
Payload
Rocket body
Debris
Shape & HBR
Unknown shape, 0.1 m
Radar Cross Section
Small (<0.1 m²)

Expand to show TLE details & history
Last TLE update: 4 days ago

TLE from 4 days ago
0 SL-16 DEB
1 22574U 92093HW  26169.53876337  .00001763  00000-0  85676-3 0  9991
2 22574  71.0876 213.5262 0122703 132.2221  17.3872 14.15720147701367
Epoch: 2026-06-18T12:55Z
TLE epoch observation values (Epoch: 2026-06-18T12:55:49.155Z)
Latitude
28.25095°
Longitude
-77.76065°
Altitude
758.399 km
Speed
7.522 km/s
True Right ascension
01h 31m 53s
True Declination
28° 06' 28"
Sunlit
Object was in daylight at epoch
Visualization orbit readout
Latitude
Unknown
Longitude
Unknown
Altitude
Unknown
Speed
Unknown
Apparent Right ascension
Unknown
Apparent Declination
Unknown
Sunlit
N/A
Visualization observer readout
Local Sidereal Time
07:10:07
Azimuth
Unknown
Elevation
Unknown
Doppler factor
Unknown
Orbital elements
Apogee altitude
926.32 km
Perigee altitude
749.237 km
Semi-major axis
7,215.915 km
Eccentricity
0.01227
Inclination
71.0876°
RAAN
213.5262°
Arg. of periapsis
132.2221°
True anomaly
17.81361°
Mean anomaly
17.3872°
Eccentric anomaly
17.59977°
Mean motion
3.54084 °/min
Orbital period
101.67 mins
BSTAR
0.00085676
Loading maneuver chart data...
Computing Atmospheric mass density...
Loading historical data...
Loading historical data...
Loading historical data...
Loading historical data...
Loading historical data...
Loading historical data...
Loading historical data...

Documentation

Showing up to 5 results
|